Wind_Speed
59 59 59 59 59 59 58 57 56 55 54 52 49 47 45 42 40 39 37 35 34 33 31 30 28 27 25 24 22 22 21 21 21 22 24 26 26 26 26 26 26 25 25
64 64 63 63 63 63 63 63 62 61 59 57 55 53 50 47 44 42 39 37 35 33 32 30 28 27 26 24 22 21 21 20 21 22 23 25 26 26 26 26 26 26 25
70 70 70 69 69 69 68 67 66 65 64 62 60 57 54 52 49 45 42 40 37 35 33 31 29 27 25 24 22 21 20 20 20 21 23 24 25 26 26 26 26 25 25
75 75 74 74 75 74 74 73 72 71 70 68 66 63 59 55 51 49 46 42 40 37 35 32 29 27 26 24 22 21 20 19 20 20 22 24 25 26 26 25 25 24 24
65 64 64 65 67 69 71 73 75 75 75 74 72 69 65 61 56 53 50 46 43 39 37 35 31 28 26 24 22 21 20 20 19 20 21 22 23 23 23 24 24 24 24
47 45 44 45 46 49 52 57 62 67 71 73 75 74 71 67 63 59 55 51 47 43 38 36 33 30 27 25 23 22 21 20 19 19 21 21 22 22 23 24 24 23 23
40 40 40 40 40 39 40 42 45 49 55 62 67 70 72 72 69 64 60 56 51 46 42 37 34 31 28 26 24 23 21 20 18 19 20 21 22 22 22 23 23 22 22
43 43 43 42 41 40 40 39 38 39 42 46 53 59 64 67 70 68 64 59 53 49 45 41 36 33 29 27 24 23 21 20 19 19 20 20 22 23 22 22 22 22 21
45 45 45 44 44 43 42 40 39 38 37 38 39 45 52 57 62 66 65 60 55 51 47 42 38 34 30 28 26 24 21 20 19 19 19 21 23 23 22 22 21 19 18
48 47 47 46 45 44 42 40 39 37 36 35 34 35 39 45 52 57 60 59 55 51 47 43 39 35 32 29 27 25 22 20 19 18 18 19 20 20 20 19 17 15 16
51 49 48 47 46 44 42 39 38 36 35 34 32 32 33 36 43 49 52 54 53 49 46 42 39 36 34 30 28 26 23 21 20 19 18 18 18 18 17 16 16 15 15
51 50 48 46 44 42 39 37 36 34 33 32 30 30 30 31 36 43 48 50 49 48 45 43 39 37 34 31 28 26 23 21 20 19 18 17 17 17 16 17 16 14 13
49 48 45 42 41 38 36 35 34 33 31 30 28 27 27 29 32 39 46 49 48 47 45 42 39 36 33 30 27 25 23 21 19 18 17 17 17 17 17 15 14 13 13
45 43 41 38 36 35 33 32 31 30 29 28 27 26 26 27 29 35 45 50 48 46 45 42 39 36 32 29 27 24 22 21 19 18 17 18 17 16 15 14 14 13 13
38 36 35 34 33 31 30 29 28 28 27 26 25 24 24 25 27 33 44 49 48 47 44 41 38 34 31 29 27 24 22 20 19 17 17 17 16 16 15 15 14 13 13
31 29 27 26 25 25 25 25 25 25 24 23 22 22 21 22 26 33 43 47 48 47 43 39 36 33 31 29 27 24 22 20 19 18 18 17 17 16 16 15 14 13 13
23 21 20 18 18 18 19 20 21 21 20 19 19 20 20 21 25 32 39 45 45 43 41 38 35 33 31 28 27 25 23 21 21 20 19 19 18 17 16 15 14 13 13
16 14 11 10 11 13 14 16 18 18 17 16 15 16 17 19 24 31 37 44 44 42 40 38 35 33 30 28 27 25 24 23 22 20 19 19 18 17 16 15 14 13 13
12 8 3 3 7 10 12 15 15 14 13 12 12 12 16 20 25 30 37 41 41 40 38 36 34 32 30 28 27 26 25 23 22 21 19 18 17 16 15 14 13 13 13
12 8 6 7 9 11 13 14 14 13 13 12 12 15 18 23 28 33 37 38 37 36 35 33 32 30 29 27 27 26 25 24 22 20 19 18 16 15 14 13 13 13 13
16 13 13 13 14 14 14 14 14 14 13 13 15 19 22 27 31 34 36 36 35 34 32 31 29 28 28 27 27 26 25 23 21 19 18 17 15 14 13 13 13 14 15
18 16 15 15 15 15 15 15 14 14 16 19 20 22 25 29 32 34 34 35 34 32 30 28 27 27 27 26 26 25 23 22 20 18 17 16 15 14 13 13 14 15 17
18 17 16 15 15 15 16 16 17 18 20 21 22 25 28 31 33 33 33 33 31 29 27 26 26 26 26 25 24 23 22 20 18 17 16 15 14 14 14 15 16 17 19
21 18 16 15 15 15 16 18 19 20 21 22 24 27 30 32 33 32 31 29 27 25 24 24 24 24 23 22 21 20 19 17 16 15 15 15 15 15 16 16 17 19 20
26 24 22 20 19 19 21 22 23 24 26 27 29 30 31 31 31 30 29 27 25 23 23 22 22 21 20 19 18 17 16 15 15 15 15 15 16 16 17 18 19 20 21
29 28 27 27 27 27 28 28 29 29 30 30 29 29 29 28 28 27 25 24 23 22 21 20 19 18 17 16 14 13 13 14 14 14 15 16 17 17 18 19 20 21 22
Wind_Direction
281 279 278 276 275 274 272 271 270 269 268 266 265 264 265 266 266 265 266 267 270 273 277 282 286 290 294 297 297 293 287 279 268 260 254 251 251 253 257 259 264 265 264
280 278 277 275 274 273 271 270 269 268 267 266 264 263 262 264 264 262 260 261 264 267 272 276 280 285 289 293 295 293 287 280 271 262 256 253 251 253 257 261 264 263 263
279 278 276 274 273 271 270 269 268 267 266 265 263 262 261 261 261 260 258 257 258 261 265 270 275 280 285 289 292 292 287 280 271 263 259 256 254 255 257 261 262 261 260
280 278 275 273 271 270 268 267 266 265 264 263 262 261 260 259 258 257 257 255 253 256 260 265 270 276 282 285 288 289 287 280 273 265 260 257 255 254 257 258 258 256 258
284 281 278 276 273 270 267 265 264 262 261 261 261 260 258 256 255 254 255 253 251 252 256 260 265 271 278 282 284 285 284 279 273 266 260 257 255 254 253 254 254 254 258
289 286 284 282 279 276 273 269 266 263 261 259 258 257 256 255 254 252 253 251 249 249 253 256 260 265 272 277 281 282 281 278 273 268 260 258 255 251 251 252 252 254 255
289 287 286 284 282 280 279 277 273 269 265 261 258 256 254 252 252 250 251 249 247 246 248 251 255 261 267 273 276 276 277 277 272 267 260 257 251 248 250 249 248 250 252
289 288 286 284 283 281 279 279 278 275 271 267 262 256 253 251 249 248 247 245 243 243 245 247 251 257 262 268 270 272 272 273 270 265 259 255 250 245 245 247 249 249 247
289 287 284 282 281 281 279 276 274 274 273 271 268 260 253 249 247 245 243 240 239 240 240 241 247 253 258 263 266 266 267 268 266 262 259 256 252 246 245 245 244 242 240
289 287 284 282 280 278 277 273 270 270 271 271 269 264 256 248 243 240 237 235 234 236 236 238 243 250 255 259 261 262 263 263 259 255 252 247 245 242 242 239 237 237 238
289 287 284 281 279 276 274 271 268 267 267 268 266 263 257 248 239 233 228 226 226 229 231 234 239 245 250 253 256 257 257 256 253 249 248 244 240 237 233 232 230 227 226
288 286 284 280 277 273 271 267 265 264 263 263 263 261 256 247 236 225 218 213 214 220 225 229 234 239 244 246 248 249 249 248 247 246 243 239 235 230 226 224 221 219 218
287 285 282 278 273 270 267 263 260 259 259 258 258 257 253 245 234 221 209 203 204 211 217 222 227 233 237 239 240 241 241 240 239 237 235 232 226 221 218 214 212 210 207
287 282 278 274 270 267 264 260 256 254 253 252 253 250 249 243 231 216 204 196 196 202 210 215 220 225 228 231 233 234 233 232 230 228 224 221 217 214 210 208 206 202 199
289 285 278 272 267 263 258 254 249 247 246 245 246 245 244 240 228 213 199 192 192 197 203 209 214 218 221 223 224 225 224 222 219 218 214 212 209 206 202 200 198 197 200
293 288 281 271 262 256 251 246 242 238 236 239 240 240 241 238 223 205 195 190 189 191 196 203 207 210 213 216 217 216 213 211 209 207 206 203 201 198 197 197 199 201 204
300 291 281 267 255 246 238 233 230 226 227 230 234 236 235 227 214 198 190 185 187 187 191 197 201 204 208 211 211 209 206 204 201 200 199 197 196 197 200 202 204 207 210
317 306 287 260 242 229 221 216 212 212 217 220 224 225 219 209 201 192 185 183 183 184 188 193 196 199 202 204 204 202 200 198 197 196 196 196 198 201 204 207 210 216 221
347 341 318 219 198 193 190 190 192 197 200 201 202 201 189 185 184 183 181 179 180 183 186 189 193 196 197 198 198 196 194 194 194 193 194 197 201 204 208 213 219 226 232
25 45 79 113 137 151 162 168 171 173 175 174 173 167 168 170 173 173 173 175 178 180 185 187 189 190 190 190 190 189 188 188 189 192 195 199 204 209 215 222 229 236 244
53 69 88 106 119 128 137 144 149 154 156 153 152 151 154 160 166 168 168 170 173 175 178 179 181 182 183 183 183 183 184 187 190 194 198 203 209 217 224 233 241 248 255
61 73 89 102 111 118 126 133 137 141 143 143 144 145 148 154 158 160 162 166 167 168 171 173 175 178 179 180 181 182 185 189 193 197 202 209 217 226 235 243 251 257 263
65 77 88 99 108 114 121 127 130 134 138 140 140 141 144 148 151 154 157 160 162 164 167 170 172 174 177 178 180 183 186 191 197 203 210 218 226 235 243 250 257 262 267
62 72 84 95 105 113 121 127 130 133 138 140 140 139 142 145 148 151 153 155 158 161 164 167 169 171 174 177 181 186 191 197 204 212 220 227 235 242 249 255 261 266 270
64 71 80 88 98 108 116 121 125 130 133 136 137 138 142 145 147 149 151 154 157 160 162 165 168 171 175 180 184 189 196 204 213 221 229 236 242 248 254 259 265 269 273
65 72 80 88 97 103 108 112 117 122 126 131 134 137 140 143 144 146 149 152 155 158 161 165 168 172 175 179 184 193 204 214 223 231 239 245 249 252 257 262 267 271 275
Height
5740 5738 5737 5736 5735 5735 5736 5736 5737 5739 5740 5742 5744 5746 5747 5749 5750 5751 5752 5752 5753 5752 5752 5751 5750 5748 5746 5743 5741 5740 5739 5739 5740 5742 5743 5745 5747 5750 5752 5755 5757 5758 5760
5722 5721 5719 5718 5717 5717 5717 5718 5719 5721 5723 5726 5728 5731 5733 5736 5738 5739 5741 5742 5743 5743 5744 5743 5742 5741 5739 5737 5735 5734 5733 5733 5734 5735 5736 5738 5740 5743 5745 5747 5749 5751 5753
5702 5700 5699 5697 5697 5697 5697 5698 5699 5701 5704 5707 5711 5714 5718 5721 5724 5727 5729 5731 5733 5734 5734 5735 5734 5734 5732 5730 5729 5728 5727 5727 5728 5729 5730 5732 5734 5736 5738 5740 5742 5744 5746
5678 5676 5674 5673 5672 5673 5674 5676 5678 5680 5683 5686 5691 5695 5700 5705 5709 5713 5716 5719 5721 5723 5725 5726 5726 5726 5725 5724 5722 5721 5721 5721 5722 5723 5724 5726 5728 5730 5731 5733 5735 5738 5740
5653 5650 5648 5647 5647 5647 5648 5650 5653 5656 5660 5664 5669 5674 5680 5686 5692 5697 5701 5706 5710 5712 5714 5716 5717 5718 5717 5717 5716 5715 5715 5715 5716 5717 5718 5720 5721 5723 5725 5727 5729 5731 5733
5632 5630 5629 5627 5626 5626 5626 5627 5629 5631 5635 5639 5645 5651 5658 5665 5672 5679 5686 5691 5696 5700 5703 5706 5708 5709 5709 5709 5709 5708 5708 5709 5710 5711 5712 5714 5715 5717 5720 5722 5724 5725 5727
5618 5616 5614 5612 5611 5610 5610 5610 5610 5611 5612 5616 5620 5626 5634 5642 5650 5660 5668 5675 5681 5687 5691 5695 5698 5700 5701 5702 5702 5702 5702 5702 5704 5705 5706 5707 5709 5711 5713 5715 5718 5720 5722
5604 5602 5600 5598 5597 5596 5596 5596 5595 5595 5595 5596 5599 5604 5610 5618 5628 5638 5649 5658 5666 5673 5679 5683 5687 5691 5693 5694 5695 5696 5696 5697 5698 5699 5701 5702 5704 5706 5708 5710 5713 5715 5717
5590 5587 5585 5583 5582 5582 5581 5581 5581 5581 5581 5582 5582 5585 5590 5597 5606 5616 5628 5639 5649 5658 5665 5671 5677 5681 5684 5686 5688 5689 5690 5691 5692 5693 5695 5697 5699 5701 5703 5706 5708 5710 5712
5574 5571 5569 5567 5566 5566 5566 5567 5567 5568 5568 5569 5570 5571 5574 5579 5586 5596 5608 5621 5634 5644 5652 5660 5666 5671 5675 5678 5680 5682 5683 5685 5686 5688 5690 5693 5694 5697 5699 5702 5704 5707 5709
5557 5554 5552 5551 5550 5550 5551 5552 5553 5554 5555 5556 5558 5559 5561 5565 5570 5579 5590 5603 5617 5629 5639 5648 5655 5662 5666 5670 5672 5675 5677 5679 5681 5683 5686 5688 5691 5693 5696 5698 5700 5703 5705
5538 5536 5534 5533 5533 5534 5535 5537 5539 5541 5543 5545 5546 5548 5550 5553 5558 5565 5576 5589 5603 5616 5627 5637 5645 5652 5658 5662 5665 5668 5671 5673 5676 5678 5681 5684 5687 5690 5692 5694 5697 5699 5702
5520 5518 5516 5516 5517 5518 5520 5523 5525 5528 5531 5534 5536 5538 5540 5543 5547 5553 5564 5577 5591 5604 5616 5626 5634 5642 5649 5654 5658 5662 5665 5668 5671 5674 5677 5680 5683 5685 5688 5691 5694 5697 5699
5501 5500 5499 5500 5501 5503 5506 5509 5513 5517 5520 5524 5526 5529 5531 5534 5538 5544 5554 5567 5580 5593 5605 5616 5625 5633 5641 5647 5651 5655 5659 5663 5666 5670 5673 5676 5679 5682 5685 5688 5691 5694 5697
5485 5484 5484 5485 5487 5490 5494 5498 5502 5506 5510 5514 5518 5521 5523 5526 5530 5536 5545 5558 5572 5585 5597 5607 5617 5626 5634 5640 5645 5650 5654 5658 5662 5666 5670 5673 5677 5680 5683 5686 5689 5692 5695
5472 5471 5471 5473 5475 5479 5483 5488 5492 5497 5502 5506 5511 5514 5517 5520 5523 5530 5539 5551 5564 5577 5590 5601 5611 5620 5628 5634 5640 5645 5649 5654 5659 5663 5667 5671 5674 5678 5681 5684 5687 5690 5692
5462 5461 5462 5464 5467 5471 5475 5480 5485 5491 5496 5501 5505 5508 5512 5515 5519 5526 5536 5548 5560 5573 5585 5596 5606 5615 5622 5629 5635 5640 5646 5651 5655 5660 5664 5669 5672 5676 5679 5682 5685 5687 5690
5457 5456 5456 5458 5462 5466 5470 5475 5481 5487 5492 5497 5501 5504 5507 5512 5517 5525 5535 5546 5559 5570 5582 5592 5602 5610 5618 5625 5631 5637 5642 5648 5653 5658 5662 5666 5670 5673 5676 5679 5682 5684 5687
5456 5454 5455 5457 5460 5464 5469 5474 5480 5486 5491 5495 5499 5502 5506 5512 5518 5527 5537 5548 5560 5571 5581 5590 5599 5607 5614 5621 5628 5634 5640 5645 5650 5655 5660 5664 5667 5671 5674 5676 5679 5681 5683
5459 5458 5458 5460 5463 5467 5471 5477 5482 5487 5491 5496 5500 5503 5508 5514 5522 5531 5541 5551 5562 5572 5581 5590 5598 5605 5612 5619 5626 5632 5637 5643 5648 5653 5657 5661 5665 5668 5671 5673 5675 5677 5679
5466 5465 5465 5467 5470 5473 5477 5481 5486 5491 5495 5499 5503 5507 5512 5519 5527 5536 5545 5555 5565 5574 5583 5591 5598 5605 5612 5618 5624 5630 5636 5641 5647 5651 5655 5659 5662 5665 5668 5670 5671 5673 5675
5476 5475 5475 5476 5478 5481 5484 5488 5491 5495 5499 5504 5508 5513 5518 5525 5533 5542 5551 5561 5569 5578 5585 5592 5599 5605 5612 5618 5624 5630 5635 5640 5645 5649 5653 5656 5659 5662 5664 5666 5667 5669 5670
5486 5485 5485 5485 5487 5489 5491 5494 5498 5502 5506 5510 5515 5520 5526 5533 5541 5549 5558 5566 5574 5581 5588 5594 5601 5607 5613 5619 5624 5630 5635 5639 5644 5647 5651 5653 5656 5658 5660 5662 5663 5664 5664
5497 5495 5495 5495 5496 5497 5499 5502 5505 5509 5513 5518 5523 5528 5535 5542 5549 5557 5564 5572 5579 5585 5591 5597 5603 5609 5615 5620 5625 5630 5634 5638 5642 5645 5648 5650 5652 5654 5656 5657 5657 5658 5658
5509 5507 5505 5505 5505 5506 5508 5511 5514 5517 5522 5527 5532 5538 5544 5551 5558 5564 5571 5578 5584 5589 5595 5601 5606 5611 5616 5621 5625 5630 5634 5637 5640 5642 5644 5646 5648 5650 5651 5651 5652 5652 5651
5523 5520 5518 5517 5517 5518 5520 5522 5525 5529 5533 5538 5543 5549 5554 5560 5566 5572 5578 5583 5588 5594 5599 5604 5609 5613 5617 5622 5626 5630 5632 5635 5637 5639 5641 5642 5644 5645 5645 5646 5646 5645 5645